Tracking 20083 objects as of 9-Dec-2019
HD Live streaming from Space Station
objects crossing your sky now

COSMOS 2251 DEB

Track COSMOS 2251 DEB now!
10-day predictions


NORAD ID: 34010
Int'l Code: 1993-036GV
Perigee: 702.9 km
Apogee: 742.8 km
Inclination: 74.0 °
Period: 99.1 minutes
Semi major axis: 7093 km
RCS: 0.038 m2 (small)
Launch date: June 16, 1993
Source: Commonwealth of Independent States (former USSR) (CIS)
Launch site: PLESETSK MISSILE AND SPACE COMPLEX (PKMTR)

Note: This is SATELLITE DEBRIS
aabbcc
Your satellite tracking list
Your tracking list is empty




NASA's NSSDC Master Catalog

Two Line Element Set (TLE):
1 34010U 93036GV  19342.86861380 +.00000694 +00000-0 +17396-3 0  9996
2 34010 074.0231 195.3523 0028142 149.5932 210.6869 14.53043874571188
Source of the keplerian elements: AFSPC